Location: ??
(35.4032°N, 139.3073°E)
Time: 11:46:19
(UTC+00:00)

BlueWalker 3 - Pass Details

Date: 13 April 2024
Orbit: 482 x 494 km, 53.2° (Epoch: 21 May)

Event Time Altitude Azimuth Distance (km) Brightness Sun altitude
Rises 19:43:50 0° 313° (NW) 2,585 5.2 -6.3°
Reaches altitude 10° 19:46:02 10° 313° (NW) 1,698 4.3 -5.9°
Maximum altitude 19:49:52 82° 227° (SW) 505 1.9 -5.2°
Drops below altitude 10° 19:53:40 10° 139° (SE) 1,681 5.0 -4.4°
Sets 19:55:49 0° 138° (SE) 2,556 5.9 -4.0°
